Location: Newark
(46.2667°N, 9.8667°E)
Time: 05:45:50
(UTC+00:00)

ISS - Visible Passes

Search period start: 23 September 2020 00:00
Search period end: 03 October 2020 00:00
Orbit: 419 x 420 km, 51.6° (Epoch: 23 September)

Date Brightness Start Highest point End Pass type
(mag) Time Alt. Az. Time Alt. Az. Time Alt. Az.
23 Sep -2.4 18:56:03 10° W 18:59:12 36° N 19:00:25 26° NNE visible
24 Sep -2.7 18:08:28 10° W 18:11:42 42° NNW 18:14:50 11° ENE visible
24 Sep -1.5 19:45:55 10° WNW 19:47:47 24° NW 19:47:47 24° NW visible
25 Sep -2.4 18:58:24 10° WNW 19:01:28 31° N 19:02:09 28° NNE visible
26 Sep -2.4 18:10:49 10° WNW 18:13:54 32° N 18:16:30 13° ENE visible
26 Sep -1.2 19:47:59 10° WNW 19:49:27 22° NW 19:49:27 22° NW visible
27 Sep -2.7 19:00:32 10° WNW 19:03:41 35° N 19:03:46 35° NNE visible
28 Sep -2.5 18:13:01 10° WNW 18:16:07 32° N 18:18:06 18° ENE visible
28 Sep -1.0 19:49:54 10° WNW 19:51:03 20° WNW 19:51:03 20° WNW visible
29 Sep -3.1 19:02:28 10° WNW 19:05:23 48° N 19:05:23 48° N visible
30 Sep -3.0 18:15:00 10° WNW 18:18:14 41° NNE 18:19:43 25° ENE visible
30 Sep -0.8 19:51:50 10° WNW 19:52:41 16° WNW 19:52:41 16° WNW visible
01 Oct -2.7 17:27:30 10° WNW 17:30:39 35° N 17:33:48 10° ENE visible
01 Oct -3.1 19:04:19 10° WNW 19:07:03 55° WNW 19:07:03 55° WNW visible
02 Oct -3.8 18:16:50 10° WNW 18:20:12 72° NNE 18:21:28 35° E visible
02 Oct -0.4 19:54:06 10° W 19:54:26 12° W 19:54:26 12° W visible
